[[{"header":{"parameterUnit":"m.s-1","parameterCategory":2,"la1":30.2991,"la2":30.254,"lo1":-89.0895,"lo2":-89.0444,"dy":0.0017,"dx":0.0017,"nx":28,"ny":28,"refTime":"2025-04-16T09:00:00:Z","depth":"0","parameterNumber":2,"parameterNumberName":"U-component_of_CURRENTS"},"data":[0,0,0,0,0,0,0,0,0,0,0,0,0,0,0,0,0,0,0,0,0,0,0,0,0,0,0,0,0,0,0,0,0,0,0,0,0,0,0,0,0,0,0,0,0,0,0,0,0,0,0,0,0,0,0,0,0,0,-0.2092,-0.2092,0,-0.2136,-0.2137,-0.2137,-0.2133,-0.2133,-0.2132,-0.2132,-0.2219,-0.2222,-0.2224,0,0,0,0,0,0,0,0,0,0,0,0,0,-0.2006,-0.2007,-0.2092,-0.2092,-0.2093,-0.2136,-0.2137,-0.2137,-0.2133,-0.2133,-0.2132,-0.2131,-0.2218,-0.2221,-0.2225,0,0,0,0,0,0,0,0,0,0,0,0,0,-0.2044,-0.2008,-0.2092,-0.2098,-0.2099,-0.2136,-0.2137,-0.2137,-0.2133,-0.2133,-0.2132,-0.2131,-0.2217,-0.2221,-0.2225,-0.2267,0,0,-0.2238,-0.224,0,0,0,0,0,0,0,0,-0.2042,-0.2047,-0.2096,-0.2097,-0.2099,-0.213,-0.2139,-0.2183,-0.2133,-0.2118,-0.2132,-0.2131,-0.2195,-0.2201,-0.2208,-0.2271,-0.2275,-0.2238,-0.2241,-0.2243,-0.2244,0,0,0,0,0,0,0,-0.204,-0.2045,-0.2108,-0.2097,-0.2099,-0.2099,-0.2104,-0.2147,-0.216,-0.212,-0.212,-0.2128,-0.2196,-0.2204,-0.221,-0.2276,-0.2238,-0.2242,-0.2245,-0.2246,-0.24,-0.2402,0,0,0,0,0,0,-0.2039,-0.2043,-0.2106,-0.2109,-0.207,-0.2102,-0.2106,-0.2119,-0.2158,-0.2164,-0.2129,-0.2128,-0.2197,-0.2205,-0.2213,-0.2261,-0.2243,-0.2247,-0.2249,-0.2399,-0.2401,-0.2402,0,0,0,0,0,0,-0.2037,-0.2044,-0.2104,-0.2078,-0.2086,-0.2104,-0.2118,-0.2121,-0.2128,-0.2165,-0.2171,-0.2133,-0.2197,-0.2207,-0.2241,-0.2264,-0.2249,-0.2252,-0.2397,-0.2399,-0.2401,-0.2358,0,0,0,0,0,0,-0.2034,-0.2043,-0.2049,-0.2078,-0.2087,-0.2127,-0.2119,-0.2122,-0.2135,-0.2134,-0.2172,-0.2179,-0.2197,-0.2234,-0.2245,-0.227,-0.2256,-0.2395,-0.2398,-0.2401,-0.2358,-0.2359,-0.236,0,0,0,0,0,-0.2031,-0.2039,-0.2049,-0.2057,-0.2096,-0.2128,-0.2132,-0.2141,-0.2136,-0.2143,-0.2159,-0.2177,-0.2262,-0.2238,-0.2251,-0.2277,-0.2393,-0.2397,-0.24,-0.2357,-0.2359,-0.236,0,0,0,0,0,0,-0.2001,-0.2041,-0.2052,-0.2071,-0.2099,-0.2127,-0.2132,-0.2143,-0.2162,-0.2158,-0.2186,-0.2195,-0.2236,-0.2269,-0.2242,-0.2335,-0.2337,-0.2343,-0.23,-0.2302,-0.2303,-0.2298,-0.2259,0,0,0,0,0,-0.2001,-0.2016,-0.2057,-0.207,-0.2084,-0.211,-0.2122,-0.2133,-0.2155,-0.2162,-0.2188,-0.2225,-0.2264,-0.2287,-0.2325,-0.2372,-0.2378,-0.2405,-0.2406,-0.2406,-0.2413,-0.2422,-0.2423,-0.2414,-0.2414,-0.2414,0,0,-0.1991,-0.2015,-0.2023,-0.2064,-0.2082,-0.2114,-0.2114,-0.2134,-0.216,-0.2172,-0.2204,-0.2226,-0.2276,-0.2319,-0.2344,-0.2347,-0.2411,-0.241,-0.241,-0.2418,-0.2425,-0.2426,-0.2426,-0.2416,-0.2416,-0.2415,0,0,-0.1984,-0.2003,-0.2018,-0.2047,-0.2083,-0.2107,-0.2115,-0.215,-0.2162,-0.2197,-0.2213,-0.2238,-0.2305,-0.2335,-0.2362,-0.24,-0.2411,-0.2428,-0.2432,-0.2439,-0.2439,-0.2439,-0.243,-0.2429,-0.2433,-0.2433,-0.2433,0,-0.1971,-0.2002,-0.2025,-0.2055,-0.208,-0.2106,-0.2136,-0.216,-0.22,-0.2216,-0.2205,-0.2284,-0.2313,-0.2371,-0.2378,-0.24,-0.24,-0.2413,-0.2436,-0.2436,-0.2437,-0.2428,-0.2428,-0.2431,-0.2432,-0.2432,-0.2432,0,-0.1983,-0.2013,-0.2023,-0.2073,-0.2102,-0.2129,-0.2175,-0.2199,-0.2213,-0.2237,-0.2281,-0.2303,-0.2351,-0.2369,-0.2382,-0.2421,-0.2417,-0.2425,-0.2419,-0.2434,-0.2425,-0.2425,-0.2429,-0.243,-0.243,-0.2431,0,0,-0.1942,-0.2018,-0.2021,-0.2054,-0.2116,-0.2142,-0.2188,-0.224,-0.2269,-0.2291,-0.2324,-0.2368,-0.2369,-0.2401,-0.2421,-0.2427,-0.2415,-0.2427,-0.2428,-0.2394,-0.2417,-0.2403,-0.2402,-0.242,-0.242,-0.242,-0.2401,0,-0.1945,-0.2,-0.2041,-0.2096,-0.2132,-0.218,-0.2224,-0.2272,-0.2302,-0.2339,-0.2359,-0.2396,-0.2388,-0.2403,-0.2407,-0.2423,-0.2418,-0.2419,-0.243,-0.2431,-0.2397,-0.2404,-0.2331,-0.2307,-0.2402,-0.2402,-0.2402,0,-0.1944,-0.1985,-0.2038,-0.2121,-0.214,-0.2174,-0.2245,-0.229,-0.235,-0.2373,-0.2402,-0.2421,-0.2446,-0.2427,-0.2438,-0.2437,-0.2425,-0.2422,-0.2422,-0.2428,-0.2419,-0.2316,-0.2305,-0.2289,-0.2403,-0.2403,-0.2402,0,-0.1903,-0.1984,-0.2024,-0.2053,-0.2148,-0.2174,-0.2217,-0.2287,-0.233,-0.2388,-0.2415,-0.2445,-0.246,-0.2452,-0.245,-0.2442,-0.2451,-0.2439,-0.2411,-0.241,-0.2362,-0.2356,-0.2319,-0.2435,-0.2435,-0.2435,-0.2436,0,-0.1895,-0.1927,-0.2005,-0.2029,-0.2075,-0.2146,-0.2197,-0.225,-0.2323,-0.2371,-0.2418,-0.2453,-0.2466,-0.2478,-0.246,-0.2441,-0.2456,-0.2413,-0.2408,-0.2345,-0.2338,-0.2336,-0.2349,-0.2435,-0.2435,-0.2435,-0.2435,0,-0.1844,-0.1901,-0.1948,-0.2032,-0.2057,-0.2082,-0.2175,-0.2214,-0.2293,-0.2354,-0.2373,-0.2454,-0.2472,-0.2482,-0.248,-0.2454,-0.2401,-0.2428,-0.2348,-0.2335,-0.2283,-0.2297,-0.2257,-0.219,-0.238,-0.238,-0.238,0,-0.1826,-0.1844,-0.1922,-0.1943,-0.1976,-0.2031,-0.207,-0.2173,-0.2219,-0.2351,-0.237,-0.2433,-0.247,-0.2474,-0.245,-0.2421,-0.2383,-0.2322,-0.2296,-0.2273,-0.2285,-0.227,-0.2214,-0.2205,-0.2203,-0.2202,-0.22,0,-0.1778,-0.1798,-0.1834,-0.1873,-0.1909,-0.196,-0.2023,-0.2063,-0.2187,-0.2257,-0.2344,-0.2393,-0.2439,-0.2411,-0.2395,-0.2347,-0.2266,-0.2292,-0.2287,-0.2165,-0.2128,-0.2063,-0.222,-0.2188,-0.2189,-0.219,-0.2191,-0.2191,-0.1724,-0.1726,-0.1762,-0.1792,-0.1834,-0.1865,-0.1873,-0.1967,-0.2038,-0.2136,-0.2252,-0.2331,-0.2362,-0.2344,-0.2298,-0.2195,-0.2201,-0.2113,-0.2135,-0.2125,-0.2053,-0.2183,-0.2142,-0.2143,-0.2144,-0.2144,-0.2145,0,-0.165,-0.1661,-0.1682,-0.1709,-0.171,-0.1763,-0.1822,-0.1825,-0.1875,-0.2021,-0.2106,-0.2249,-0.2219,-0.2225,-0.2168,-0.2075,-0.1985,-0.1995,-0.1948,-0.1899,-0.2024,-0.2009,-0.1915,-0.1915,-0.1915,-0.1915,-0.1915,-0.1915,-0.1612,-0.1598,-0.1607,-0.1574,-0.1588,-0.1554,-0.1562,-0.1595,-0.1674,-0.1801,-0.1948,-0.2106,-0.2188,-0.2275,-0.2143,-0.2017,-0.1925,-0.1863,-0.186,-0.1959,-0.1971,-0.1982,-0.197,-0.1869,-0.1869,-0.1655,-0.1654,-0.1653]},{"header":{"parameterUnit":"m.s-1","parameterCategory":2,"la1":30.2991,"la2":30.254,"lo1":-89.0895,"lo2":-89.0444,"dy":0.0017,"dx":0.0017,"nx":28,"ny":28,"refTime":"2025-04-16T09:00:00:Z","depth":"0","parameterNumber":3,"parameterNumberName":"V-component_of_CURRENTS"},"data":[0,0,0,0,0,0,0,0,0,0,0,0,0,0,0,0,0,0,0,0,0,0,0,0,0,0,0,0,0,0,0,0,0,0,0,0,0,0,0,0,0,0,0,0,0,0,0,0,0,0,0,0,0,0,0,0,0,0,-0.0184,-0.0183,0,-0.0114,-0.0113,-0.0113,-0.006,-0.0059,-0.0059,-0.0058,0.003,0.0032,0.0034,0,0,0,0,0,0,0,0,0,0,0,0,0,-0.0237,-0.0237,-0.0184,-0.0183,-0.0182,-0.0114,-0.0113,-0.0112,-0.006,-0.0059,-0.0058,-0.0058,0.0029,0.0031,0.0034,0,0,0,0,0,0,0,0,0,0,0,0,0,-0.0196,-0.0237,-0.0184,-0.0147,-0.0143,-0.0114,-0.0113,-0.0112,-0.006,-0.0059,-0.0058,-0.0058,0.0029,0.0031,0.0034,0.0034,0,0,0.0042,0.0044,0,0,0,0,0,0,0,0,-0.0199,-0.0195,-0.0154,-0.015,-0.0145,-0.0094,-0.01,-0.0062,-0.006,-0.0092,-0.0058,-0.0057,-0.001,-0.0004,0.0006,0.0038,0.0042,0.0043,0.0044,0.0045,0.0046,0,0,0,0,0,0,0,-0.0202,-0.0197,-0.0157,-0.0153,-0.0148,-0.0122,-0.0116,-0.0092,-0.0057,-0.009,-0.0085,-0.0077,-0.0008,0.0003,0.0008,0.0044,0.0043,0.0045,0.0047,0.0048,0.0097,0.0096,0,0,0,0,0,0,-0.0212,-0.02,-0.0159,-0.0155,-0.017,-0.0122,-0.0115,-0.0112,-0.0057,-0.0048,-0.0077,-0.0074,-0.0002,0.0005,0.0012,0.0013,0.0045,0.0048,0.005,0.0097,0.0096,0.0096,0,0,0,0,0,0,-0.0213,-0.0209,-0.0162,-0.0175,-0.0167,-0.0122,-0.0119,-0.0111,-0.0097,-0.0048,-0.0039,-0.0071,-0.0001,0.0008,0.0035,0.0017,0.0049,0.0052,0.0097,0.0097,0.0096,0.0017,0,0,0,0,0,0,-0.0215,-0.021,-0.0213,-0.0176,-0.0167,-0.0153,-0.012,-0.011,-0.0093,-0.0088,-0.004,-0.0031,0.0,0.003,0.0037,0.0021,0.0054,0.0098,0.0097,0.0096,0.002,0.0014,0.0009,0,0,0,0,0,-0.0217,-0.0226,-0.0214,-0.0209,-0.0172,-0.0154,-0.0148,-0.0113,-0.0093,-0.0096,-0.0057,-0.0032,0.0031,0.0032,0.0041,0.0025,0.0098,0.0097,0.0096,0.0023,0.0015,0.0009,0,0,0,0,0,0,-0.0251,-0.022,-0.0207,-0.0205,-0.0185,-0.0145,-0.0141,-0.0118,-0.0089,-0.0082,-0.0035,-0.0024,-0.0008,0.0022,0.0022,0.0039,0.0068,0.0068,0.0009,0.0002,-0.0004,-0.0008,0.0056,0,0,0,0,0,-0.0261,-0.026,-0.0227,-0.0228,-0.0219,-0.0182,-0.017,-0.0148,-0.0116,-0.0102,-0.0069,-0.0032,-0.0007,0.0009,0.0036,0.0045,0.0085,0.0042,0.0036,0.003,0.0034,0.0083,0.0082,0.0093,0.0093,0.0093,0,0,-0.0274,-0.0257,-0.0256,-0.0235,-0.0215,-0.0215,-0.0173,-0.016,-0.0159,-0.0098,-0.0087,-0.0052,-0.0008,0.0003,0.0012,0.0026,0.0045,0.0029,0.0024,0.0031,0.0082,0.0081,0.008,0.0093,0.0093,0.0093,0,0,-0.0303,-0.0286,-0.0296,-0.0285,-0.026,-0.0239,-0.0238,-0.0203,-0.0187,-0.0171,-0.0128,-0.0099,-0.0063,-0.0034,-0.0014,-0.0033,0.0013,-0.0031,-0.0064,-0.0017,-0.0017,-0.0017,0.0016,0.002,-0.0034,-0.0034,-0.0034,0,-0.0321,-0.0329,-0.0297,-0.0305,-0.0301,-0.0255,-0.0269,-0.0248,-0.021,-0.0197,-0.0178,-0.0113,-0.008,-0.0057,-0.0065,-0.0047,-0.0015,-0.0045,-0.0025,-0.0023,-0.0022,0.0012,0.0018,-0.0038,-0.0037,-0.0037,-0.0037,0,-0.0356,-0.0365,-0.037,-0.0367,-0.036,-0.0364,-0.0333,-0.0322,-0.0295,-0.0267,-0.0236,-0.0183,-0.0141,-0.0133,-0.0105,-0.0085,-0.0065,-0.0039,-0.001,-0.0028,0.0009,0.0016,-0.0043,-0.0042,-0.0041,-0.004,0,0,-0.0392,-0.0396,-0.0398,-0.0414,-0.0394,-0.0396,-0.0393,-0.0376,-0.0371,-0.0327,-0.0312,-0.0265,-0.0223,-0.0197,-0.0156,-0.0118,-0.0089,-0.0081,-0.0077,-0.0054,0.0007,0.0041,0.0052,-0.0059,-0.0058,-0.0057,0.0023,0,-0.0431,-0.0469,-0.0454,-0.0491,-0.051,-0.0473,-0.0477,-0.0454,-0.0419,-0.0393,-0.0326,-0.0296,-0.0252,-0.0232,-0.0187,-0.0111,-0.0071,-0.0113,0.0028,0.0031,0.006,0.0061,0.0069,0.0144,0.003,0.0031,0.0032,0,-0.0471,-0.0493,-0.0538,-0.056,-0.0563,-0.0573,-0.0565,-0.056,-0.0506,-0.0477,-0.0422,-0.0363,-0.0301,-0.0258,-0.0134,-0.0163,-0.0085,-0.0023,-0.0018,0.005,0.0079,0.0148,0.0161,0.0328,0.0044,0.0043,0.0042,0,-0.052,-0.0553,-0.0594,-0.0601,-0.0613,-0.0621,-0.062,-0.0584,-0.0584,-0.0521,-0.0504,-0.0414,-0.0366,-0.0257,-0.0126,-0.0129,0.0018,0.0032,0.0137,0.014,0.0194,0.02,0.0383,0.0127,0.0127,0.0127,0.0127,0,-0.0571,-0.0604,-0.062,-0.0645,-0.0692,-0.0674,-0.0701,-0.0679,-0.0648,-0.0651,-0.0548,-0.0517,-0.0362,-0.0256,-0.0138,0.0023,0.0014,0.0137,0.0169,0.0165,0.0167,0.0354,0.0423,0.013,0.0129,0.0129,0.0128,0,-0.0619,-0.0629,-0.0682,-0.0709,-0.0719,-0.075,-0.0767,-0.0783,-0.0736,-0.0733,-0.0716,-0.0594,-0.0455,-0.0292,-0.011,0.0005,0.0251,0.0215,0.0194,0.0222,0.0465,0.0527,0.0737,0.081,0.0336,0.0338,0.0339,0,-0.0647,-0.0679,-0.0735,-0.0774,-0.0788,-0.0827,-0.0856,-0.0833,-0.0847,-0.078,-0.0783,-0.0643,-0.0548,-0.0258,-0.003,0.0191,0.0318,0.0338,0.0339,0.0491,0.0585,0.0629,0.0678,0.0373,0.0374,0.0375,0.0376,0,-0.0701,-0.0718,-0.0764,-0.0848,-0.0894,-0.0948,-0.098,-0.1004,-0.0974,-0.0961,-0.0907,-0.082,-0.0519,-0.0253,0.0063,0.0202,0.0455,0.0368,0.0541,0.0646,0.0692,0.0773,0.0297,0.0386,0.0385,0.0384,0.0384,0.0383,-0.0734,-0.0784,-0.0846,-0.0924,-0.0986,-0.1057,-0.1102,-0.1133,-0.116,-0.1139,-0.1016,-0.0883,-0.0442,0.0005,0.0187,0.0584,0.0559,0.0699,0.0765,0.0799,0.0872,0.0413,0.0529,0.0529,0.0529,0.0528,0.0528,0,-0.0778,-0.0838,-0.0921,-0.1015,-0.1099,-0.1111,-0.118,-0.1221,-0.1269,-0.1221,-0.1153,-0.0725,-0.0272,0.0159,0.0736,0.097,0.1014,0.1089,0.1164,0.1196,0.081,0.0815,0.0979,0.0979,0.0979,0.0978,0.0978,0.0978,-0.0805,-0.0895,-0.0945,-0.1091,-0.1159,-0.126,-0.1302,-0.1354,-0.134,-0.1246,-0.106,-0.0898,-0.0222,0.0781,0.1346,0.1394,0.1573,0.1561,0.1669,0.1417,0.1385,0.1355,0.138,0.1659,0.166,0.202,0.2024,0.2027]}],[{"header":{"parameterUnit":"m.s-1","parameterCategory":2,"la1":30.2991,"la2":30.254,"lo1":-89.0895,"lo2":-89.0444,"dy":0.0017,"dx":0.0017,"nx":28,"ny":28,"refTime":"2025-04-16T09:00:00:Z","depth":"2","parameterNumber":2,"parameterNumberName":"U-component_of_CURRENTS"},"data":[0,0,0,0,0,0,0,0,0,0,0,0,0,0,0,0,0,0,0,0,0,0,0,0,0,0,0,0,0,0,0,0,0,0,0,0,0,0,0,0,0,0,0,0,0,0,0,0,0,0,0,0,0,0,0,0,0,0,-0.1973,-0.1973,0,-0.2017,-0.2018,-0.2018,-0.2016,-0.2016,-0.2015,-0.2015,-0.2094,-0.2097,-0.2099,0,0,0,0,0,0,0,0,0,0,0,0,0,-0.189,-0.1892,-0.1973,-0.1974,-0.1974,-0.2017,-0.2018,-0.2018,-0.2016,-0.2016,-0.2015,-0.2015,-0.2093,-0.2096,-0.2099,0,0,0,0,0,0,0,0,0,0,0,0,0,-0.1928,-0.1892,-0.1973,-0.198,-0.1981,-0.2017,-0.2018,-0.2018,-0.2017,-0.2016,-0.2015,-0.2015,-0.2092,-0.2096,-0.21,-0.2137,0,0,-0.2111,-0.2113,0,0,0,0,0,0,0,0,-0.1926,-0.1931,-0.1978,-0.1979,-0.1981,-0.2012,-0.2018,-0.206,-0.2017,-0.2001,-0.2015,-0.2014,-0.2072,-0.2077,-0.2084,-0.2141,-0.2144,-0.2112,-0.2114,-0.2116,-0.2117,0,0,0,0,0,0,0,-0.1923,-0.1929,-0.1989,-0.1979,-0.1981,-0.1982,-0.1987,-0.2026,-0.2039,-0.2003,-0.2003,-0.2011,-0.2072,-0.208,-0.2086,-0.2146,-0.2112,-0.2115,-0.2117,-0.2119,-0.2258,-0.2259,0,0,0,0,0,0,-0.1922,-0.1927,-0.1987,-0.199,-0.1953,-0.1985,-0.1989,-0.2001,-0.2038,-0.2043,-0.2012,-0.2011,-0.2074,-0.2082,-0.2089,-0.2136,-0.2116,-0.2119,-0.2121,-0.2256,-0.2258,-0.226,0,0,0,0,0,0,-0.192,-0.1927,-0.1986,-0.196,-0.1968,-0.1987,-0.2,-0.2003,-0.2012,-0.2045,-0.205,-0.2018,-0.2074,-0.2084,-0.2112,-0.2139,-0.2121,-0.2124,-0.2255,-0.2257,-0.2259,-0.223,0,0,0,0,0,0,-0.1918,-0.1926,-0.1933,-0.1961,-0.197,-0.2008,-0.2001,-0.2004,-0.2018,-0.2018,-0.2053,-0.2059,-0.2074,-0.2106,-0.2116,-0.2144,-0.2127,-0.2253,-0.2256,-0.2258,-0.223,-0.2231,-0.2233,0,0,0,0,0,-0.1915,-0.1923,-0.1933,-0.194,-0.1979,-0.2009,-0.2014,-0.2023,-0.2019,-0.2027,-0.204,-0.2058,-0.2131,-0.211,-0.2121,-0.2151,-0.2252,-0.2255,-0.2258,-0.2229,-0.2231,-0.2233,0,0,0,0,0,0,-0.1887,-0.1925,-0.1936,-0.1955,-0.1982,-0.2009,-0.2014,-0.2027,-0.2043,-0.204,-0.2064,-0.2072,-0.2111,-0.2138,-0.2114,-0.2202,-0.22,-0.2206,-0.2175,-0.2177,-0.2178,-0.2173,-0.2131,0,0,0,0,0,-0.1887,-0.1902,-0.1941,-0.1954,-0.1968,-0.1994,-0.2006,-0.2018,-0.2038,-0.2044,-0.2068,-0.2101,-0.2135,-0.2158,-0.2191,-0.2235,-0.2238,-0.2268,-0.2269,-0.227,-0.2276,-0.2285,-0.2286,-0.227,-0.227,-0.227,0,0,-0.1879,-0.1902,-0.1909,-0.1949,-0.1967,-0.1997,-0.1998,-0.2019,-0.2045,-0.2053,-0.2085,-0.2104,-0.2147,-0.2188,-0.2211,-0.2213,-0.2276,-0.2274,-0.2274,-0.228,-0.2288,-0.2289,-0.229,-0.2272,-0.2272,-0.2271,0,0,-0.1873,-0.1892,-0.1906,-0.1935,-0.197,-0.1993,-0.2001,-0.2036,-0.2049,-0.2083,-0.2096,-0.212,-0.218,-0.2207,-0.2232,-0.2269,-0.2279,-0.2296,-0.2304,-0.2312,-0.2312,-0.2313,-0.2305,-0.2305,-0.2302,-0.2301,-0.2301,0,-0.1862,-0.1892,-0.1914,-0.1942,-0.1967,-0.1993,-0.2022,-0.2046,-0.2085,-0.2101,-0.2091,-0.2164,-0.219,-0.2244,-0.2253,-0.2271,-0.2271,-0.2285,-0.231,-0.2311,-0.2312,-0.2303,-0.2304,-0.2301,-0.2301,-0.2301,-0.2301,0,-0.1874,-0.1903,-0.1913,-0.1961,-0.1989,-0.2015,-0.206,-0.2085,-0.2101,-0.2125,-0.2168,-0.2188,-0.2231,-0.225,-0.2261,-0.23,-0.2294,-0.23,-0.2294,-0.2311,-0.2302,-0.2303,-0.2299,-0.2299,-0.23,-0.23,0,0,-0.1836,-0.1909,-0.1912,-0.1943,-0.2003,-0.2028,-0.2074,-0.2124,-0.2153,-0.2178,-0.2211,-0.2254,-0.2255,-0.2284,-0.2302,-0.231,-0.2305,-0.2309,-0.231,-0.2282,-0.2309,-0.2292,-0.2291,-0.2309,-0.231,-0.231,-0.2294,0,-0.184,-0.1891,-0.193,-0.1983,-0.2017,-0.2064,-0.2108,-0.2154,-0.2186,-0.2223,-0.2244,-0.228,-0.2275,-0.229,-0.2296,-0.2311,-0.2309,-0.2308,-0.2315,-0.2316,-0.2282,-0.2292,-0.2113,-0.2083,-0.2294,-0.2295,-0.2295,0,-0.1839,-0.1877,-0.1929,-0.2007,-0.2025,-0.2058,-0.2127,-0.2171,-0.2232,-0.2256,-0.2286,-0.2305,-0.2332,-0.2316,-0.2329,-0.2327,-0.2317,-0.2315,-0.2315,-0.2311,-0.23,-0.2107,-0.2077,-0.2296,-0.2296,-0.2296,-0.2296,0,-0.1799,-0.1876,-0.1915,-0.1942,-0.2032,-0.2059,-0.2101,-0.217,-0.2211,-0.227,-0.2297,-0.2329,-0.2345,-0.2341,-0.2341,-0.2334,-0.2344,-0.2333,-0.2304,-0.2302,-0.2159,-0.2145,-0.2332,-0.2332,-0.2332,-0.2332,-0.2332,0,-0.1791,-0.1821,-0.1896,-0.1919,-0.1964,-0.2033,-0.2083,-0.2134,-0.2206,-0.2251,-0.2301,-0.2335,-0.2352,-0.2366,-0.235,-0.2333,-0.2349,-0.2306,-0.2301,-0.2146,-0.2131,-0.2331,-0.2331,-0.2331,-0.2331,-0.2332,-0.2332,0,-0.1742,-0.1797,-0.1841,-0.1923,-0.1947,-0.1972,-0.2062,-0.2098,-0.2177,-0.2236,-0.2255,-0.2335,-0.2355,-0.2368,-0.2369,-0.2345,-0.2331,-0.232,-0.2134,-0.2108,-0.2275,-0.2274,-0.2273,-0.2273,-0.2272,-0.2272,-0.2271,0,-0.1724,-0.1741,-0.1817,-0.1837,-0.187,-0.1923,-0.1961,-0.206,-0.2102,-0.223,-0.2247,-0.2311,-0.2344,-0.2351,-0.2317,-0.2288,-0.2322,-0.2101,-0.2061,-0.2276,-0.2271,-0.2271,-0.2271,-0.1847,-0.1843,-0.184,-0.1837,0,-0.1677,-0.1698,-0.1733,-0.1769,-0.1805,-0.1852,-0.1911,-0.1948,-0.2067,-0.2132,-0.2213,-0.2258,-0.2293,-0.2203,-0.2185,-0.213,-0.2093,-0.2039,-0.23,-0.1909,-0.1878,-0.1872,-0.1885,-0.1809,-0.1812,-0.1814,-0.1816,-0.1817,-0.1626,-0.1628,-0.1663,-0.1692,-0.1731,-0.1758,-0.1764,-0.1847,-0.191,-0.1986,-0.21,-0.2121,-0.212,-0.2027,-0.1932,-0.1844,-0.1986,-0.1866,-0.1873,-0.1884,-0.1858,-0.1829,-0.1745,-0.1747,-0.1749,-0.1751,-0.1752,0,-0.1554,-0.1566,-0.1585,-0.161,-0.1608,-0.1661,-0.1712,-0.1701,-0.1737,-0.1838,-0.1902,-0.1771,-0.1739,-0.1728,-0.1578,-0.1556,-0.1501,-0.1456,-0.1378,-0.1408,-0.1434,-0.1382,-0.1144,-0.1142,-0.114,-0.1139,0,0,-0.1517,-0.1502,-0.151,-0.1476,-0.149,-0.1452,-0.1457,-0.1462,-0.1501,-0.1508,-0.1532,-0.1698,-0.1732,-0.1466,-0.1383,-0.1247,-0.1307,-0.1174,-0.1665,-0.1606,-0.163,-0.1677,-0.1634,0,0,0,0,0]},{"header":{"parameterUnit":"m.s-1","parameterCategory":2,"la1":30.2991,"la2":30.254,"lo1":-89.0895,"lo2":-89.0444,"dy":0.0017,"dx":0.0017,"nx":28,"ny":28,"refTime":"2025-04-16T09:00:00:Z","depth":"2","parameterNumber":3,"parameterNumberName":"V-component_of_CURRENTS"},"data":[0,0,0,0,0,0,0,0,0,0,0,0,0,0,0,0,0,0,0,0,0,0,0,0,0,0,0,0,0,0,0,0,0,0,0,0,0,0,0,0,0,0,0,0,0,0,0,0,0,0,0,0,0,0,0,0,0,0,-0.0095,-0.0094,0,-0.0028,-0.0027,-0.0026,0.0024,0.0024,0.0025,0.0025,0.0122,0.0124,0.0126,0,0,0,0,0,0,0,0,0,0,0,0,0,-0.0146,-0.0145,-0.0095,-0.0094,-0.0093,-0.0028,-0.0027,-0.0026,0.0024,0.0025,0.0025,0.0026,0.0122,0.0124,0.0127,0,0,0,0,0,0,0,0,0,0,0,0,0,-0.0106,-0.0145,-0.0095,-0.006,-0.0056,-0.0028,-0.0027,-0.0026,0.0024,0.0025,0.0025,0.0026,0.0121,0.0124,0.0127,0.0131,0,0,0.0137,0.0138,0,0,0,0,0,0,0,0,-0.0109,-0.0105,-0.0066,-0.0062,-0.0058,-0.0009,-0.0009,0.0028,0.0024,-0.0007,0.0025,0.0026,0.0081,0.0087,0.0097,0.0136,0.014,0.0137,0.0139,0.014,0.0141,0,0,0,0,0,0,0,-0.0111,-0.0107,-0.0069,-0.0065,-0.006,-0.0036,-0.003,-0.0002,0.0032,-0.0004,-0.0,0.0008,0.0083,0.0094,0.01,0.0141,0.0137,0.014,0.0141,0.0143,0.0198,0.0197,0,0,0,0,0,0,-0.0121,-0.011,-0.0071,-0.0067,-0.0081,-0.0036,-0.0029,-0.0026,0.0031,0.004,0.0007,0.001,0.0088,0.0096,0.0103,0.0104,0.014,0.0143,0.0145,0.0198,0.0198,0.0197,0,0,0,0,0,0,-0.0123,-0.0119,-0.0074,-0.0086,-0.0078,-0.0036,-0.0033,-0.0025,-0.0012,0.004,0.005,0.0012,0.0089,0.0099,0.0127,0.0109,0.0144,0.0147,0.0199,0.0198,0.0197,0.0111,0,0,0,0,0,0,-0.0125,-0.012,-0.0123,-0.0087,-0.0078,-0.0066,-0.0033,-0.0024,-0.0008,-0.0004,0.0047,0.0057,0.009,0.0121,0.013,0.0114,0.015,0.0199,0.0198,0.0198,0.0115,0.0108,0.0102,0,0,0,0,0,-0.0127,-0.0135,-0.0124,-0.0119,-0.0084,-0.0066,-0.006,-0.0027,-0.0009,-0.0011,0.0027,0.0055,0.0122,0.0124,0.0133,0.0118,0.02,0.0199,0.0198,0.0117,0.0109,0.0102,0,0,0,0,0,0,-0.0159,-0.013,-0.0117,-0.0116,-0.0097,-0.0058,-0.0055,-0.0032,-0.0005,0.0002,0.0052,0.0063,0.008,0.0113,0.0113,0.0133,0.0165,0.0166,0.0101,0.0093,0.0087,0.0083,0.0152,0,0,0,0,0,-0.017,-0.0168,-0.0137,-0.0138,-0.013,-0.0094,-0.0083,-0.0062,-0.0031,-0.0017,0.0017,0.0055,0.0082,0.0099,0.0128,0.0139,0.0179,0.0137,0.013,0.0124,0.0128,0.0174,0.0172,0.0194,0.0194,0.0194,0,0,-0.0183,-0.0166,-0.0166,-0.0145,-0.0126,-0.0127,-0.0086,-0.0074,-0.0074,-0.0012,-0.0001,0.0034,0.008,0.0091,0.0102,0.0118,0.0136,0.0123,0.0118,0.0125,0.0173,0.0171,0.0169,0.0193,0.0193,0.0193,0,0,-0.0212,-0.0195,-0.0205,-0.0195,-0.0172,-0.0151,-0.0151,-0.0118,-0.0102,-0.0087,-0.0045,-0.0017,0.0023,0.0052,0.0072,0.0051,0.01,0.0055,0.002,0.0064,0.0062,0.0062,0.0094,0.0097,0.0053,0.0052,0.0052,0,-0.023,-0.0238,-0.0207,-0.0215,-0.0212,-0.0167,-0.0182,-0.0162,-0.0125,-0.0114,-0.0094,-0.0031,0.0004,0.0026,0.0016,0.0035,0.0066,0.0041,0.0055,0.0055,0.0056,0.0089,0.0094,0.0048,0.0049,0.0049,0.005,0,-0.0266,-0.0274,-0.028,-0.0277,-0.0272,-0.0276,-0.0247,-0.0237,-0.0211,-0.0185,-0.0157,-0.0104,-0.0063,-0.0055,-0.0026,-0.0009,0.0013,0.0039,0.0071,0.0049,0.0085,0.0091,0.0042,0.0044,0.0045,0.0046,0,0,-0.0301,-0.0306,-0.0308,-0.0324,-0.0306,-0.0308,-0.0307,-0.0292,-0.0289,-0.0248,-0.0236,-0.019,-0.015,-0.0123,-0.0082,-0.0046,-0.0023,-0.0008,-0.0004,0.0017,0.0066,0.01,0.0111,0.0005,0.0006,0.0007,0.0083,0,-0.034,-0.0379,-0.0364,-0.0402,-0.0421,-0.0386,-0.0392,-0.0371,-0.0338,-0.0316,-0.0252,-0.0224,-0.018,-0.0161,-0.0119,-0.0044,-0.0008,-0.0046,0.0092,0.0096,0.0124,0.0119,0.0091,0.0159,0.009,0.0091,0.0091,0,-0.038,-0.0403,-0.0448,-0.0471,-0.0475,-0.0485,-0.0481,-0.0477,-0.0429,-0.0402,-0.0351,-0.0294,-0.0236,-0.0193,-0.0074,-0.0101,-0.0025,0.0036,0.0041,0.0111,0.0142,0.0175,0.0174,0.0102,0.0101,0.0101,0.01,0,-0.0429,-0.0462,-0.0504,-0.0511,-0.0525,-0.0534,-0.0534,-0.0503,-0.0504,-0.0447,-0.0432,-0.0347,-0.0303,-0.0198,-0.0068,-0.0071,0.0069,0.0084,0.0186,0.0189,0.0214,0.0218,0.0173,0.0173,0.0173,0.0173,0.0172,0,-0.0479,-0.0512,-0.053,-0.0555,-0.0603,-0.0586,-0.0615,-0.0596,-0.0569,-0.0574,-0.0477,-0.0448,-0.03,-0.0198,-0.0083,0.0073,0.0063,0.0185,0.0216,0.0182,0.0182,0.0177,0.0176,0.0175,0.0175,0.0174,0.0174,0,-0.0527,-0.0537,-0.0591,-0.0618,-0.0629,-0.0661,-0.068,-0.0698,-0.0655,-0.0654,-0.0639,-0.0524,-0.039,-0.0234,-0.0058,0.0053,0.0198,0.0258,0.0204,0.0228,0.0288,0.0282,0.0371,0.0373,0.0374,0.0376,0.0377,0,-0.0555,-0.0586,-0.0643,-0.0682,-0.0696,-0.0736,-0.0766,-0.0747,-0.076,-0.07,-0.0703,-0.0571,-0.048,-0.02,0.0016,0.0229,0.0237,0.034,0.0336,0.0289,0.0311,0.0302,0.0294,0.0327,0.0328,0.0328,0.0329,0,-0.0608,-0.0625,-0.067,-0.0754,-0.08,-0.0853,-0.0886,-0.091,-0.0883,-0.0872,-0.082,-0.0737,-0.0453,-0.0213,0.0089,0.0216,0.0303,0.0359,0.0335,0.0282,0.0255,0.0274,0.0266,0.0333,0.0333,0.0333,0.0332,0.0332,-0.0641,-0.069,-0.0751,-0.0828,-0.089,-0.0958,-0.1002,-0.1029,-0.1055,-0.1027,-0.0916,-0.0774,-0.0499,-0.0089,0.0146,0.0371,0.0358,0.0422,0.0417,0.0413,0.0395,0.0373,0.0469,0.0469,0.0469,0.0469,0.047,0,-0.0684,-0.0744,-0.0824,-0.0916,-0.0996,-0.1011,-0.1077,-0.1106,-0.1148,-0.1088,-0.1017,-0.0717,-0.041,-0.0119,0.0237,0.0453,0.0438,0.0493,0.0431,0.0425,0.042,0.04,0.0477,0.0477,0.0478,0.0479,0,0,-0.0711,-0.0797,-0.0845,-0.0986,-0.1053,-0.1148,-0.1189,-0.1218,-0.1187,-0.1144,-0.1029,-0.0821,-0.0442,-0.0184,0.01,0.0294,0.0298,0.0313,0.0283,0.0169,0.0161,0.0356,0.0317,0,0,0,0,0]}],[{"header":{"parameterUnit":"m.s-1","parameterCategory":2,"la1":30.2991,"la2":30.254,"lo1":-89.0895,"lo2":-89.0444,"dy":0.0017,"dx":0.0017,"nx":28,"ny":28,"refTime":"2025-04-16T09:00:00:Z","depth":"4","parameterNumber":2,"parameterNumberName":"U-component_of_CURRENTS"},"data":[0,0,0,0,0,0,0,0,0,0,0,0,0,0,0,0,0,0,0,0,0,0,0,0,0,0,0,0,0,0,0,0,0,0,0,0,0,0,0,0,0,0,0,0,0,0,0,0,0,0,0,0,0,0,0,0,0,0,-0.1434,-0.1435,0,-0.1512,-0.1513,-0.1514,-0.1562,-0.1563,-0.1563,-0.1563,-0.153,-0.1529,-0.1527,0,0,0,0,0,0,0,0,0,0,0,0,0,-0.1337,-0.1338,-0.1434,-0.1435,-0.1436,-0.1512,-0.1513,-0.1514,-0.1562,-0.1563,-0.1563,-0.1563,-0.153,-0.1529,-0.1527,0,0,0,0,0,0,0,0,0,0,0,0,0,-0.1393,-0.1339,-0.1434,-0.147,-0.1474,-0.1512,-0.1513,-0.1515,-0.1562,-0.1563,-0.1563,-0.1564,-0.1531,-0.1529,-0.1527,-0.1507,0,0,-0.1522,-0.1521,0,0,0,0,0,0,0,0,-0.139,-0.1396,-0.1463,-0.1467,-0.1472,-0.1529,-0.1467,-0.1507,-0.1562,-0.1528,-0.1563,-0.1564,-0.1519,-0.1518,-0.1533,-0.1505,-0.1504,-0.1522,-0.1521,-0.152,-0.1519,0,0,0,0,0,0,0,-0.1386,-0.1393,-0.1464,-0.1465,-0.147,-0.1486,-0.1494,-0.1475,-0.1517,-0.1531,-0.1535,-0.1544,-0.1521,-0.1534,-0.1532,-0.1503,-0.1522,-0.152,-0.1519,-0.1518,-0.1576,-0.1578,0,0,0,0,0,0,-0.1377,-0.139,-0.1462,-0.1467,-0.1432,-0.1487,-0.1496,-0.1509,-0.152,-0.1523,-0.1544,-0.1546,-0.1537,-0.1534,-0.1531,-0.1592,-0.152,-0.1518,-0.1517,-0.1573,-0.1576,-0.1579,0,0,0,0,0,0,-0.1374,-0.1382,-0.1459,-0.143,-0.1441,-0.1488,-0.1503,-0.1511,-0.1549,-0.1531,-0.1532,-0.1577,-0.1537,-0.1533,-0.1564,-0.1587,-0.1517,-0.1516,-0.157,-0.1574,-0.1578,-0.1659,0,0,0,0,0,0,-0.1371,-0.1381,-0.14,-0.143,-0.1443,-0.1496,-0.1503,-0.1512,-0.1553,-0.1558,-0.1559,-0.1555,-0.1537,-0.1567,-0.1562,-0.1584,-0.1514,-0.1567,-0.1572,-0.1576,-0.1653,-0.1665,-0.1675,0,0,0,0,0,-0.1367,-0.1384,-0.14,-0.141,-0.1463,-0.1496,-0.1505,-0.1539,-0.1554,-0.1575,-0.1599,-0.1557,-0.1594,-0.1568,-0.1561,-0.1583,-0.1564,-0.157,-0.1576,-0.1648,-0.1663,-0.1675,0,0,0,0,0,0,-0.1353,-0.1392,-0.141,-0.1439,-0.1473,-0.1505,-0.1529,-0.1553,-0.1589,-0.1599,-0.1586,-0.1585,-0.1623,-0.1599,-0.157,-0.1619,-0.1573,-0.1577,-0.1629,-0.1643,-0.1654,-0.1631,-0.1513,0,0,0,0,0,-0.1358,-0.1382,-0.142,-0.1446,-0.1463,-0.1502,-0.1525,-0.1549,-0.1579,-0.1598,-0.1606,-0.1619,-0.1638,-0.1639,-0.1647,-0.1662,-0.1634,-0.1676,-0.1687,-0.1696,-0.1678,-0.1686,-0.1695,-0.1598,-0.1598,-0.1598,0,0,-0.136,-0.1384,-0.14,-0.1445,-0.1473,-0.1507,-0.1518,-0.1557,-0.1594,-0.1583,-0.1639,-0.1657,-0.1656,-0.1693,-0.1705,-0.1674,-0.1715,-0.1704,-0.1712,-0.1687,-0.1693,-0.1702,-0.1709,-0.1602,-0.1601,-0.1601,0,0,-0.1366,-0.1398,-0.142,-0.1451,-0.1499,-0.1523,-0.154,-0.1589,-0.1622,-0.1671,-0.169,-0.1728,-0.1742,-0.176,-0.1765,-0.1839,-0.1782,-0.1846,-0.1868,-0.1878,-0.1885,-0.1891,-0.1881,-0.1885,-0.1842,-0.1842,-0.1842,0,-0.137,-0.1403,-0.1432,-0.1462,-0.1494,-0.1534,-0.1568,-0.1606,-0.1664,-0.1691,-0.1696,-0.1767,-0.1771,-0.1818,-0.1856,-0.1859,-0.1849,-0.1814,-0.189,-0.1894,-0.1899,-0.1887,-0.1891,-0.1846,-0.1846,-0.1845,-0.1845,0,-0.1386,-0.1427,-0.1442,-0.1496,-0.1532,-0.1568,-0.1619,-0.1664,-0.1705,-0.1739,-0.1805,-0.1833,-0.1865,-0.1889,-0.1892,-0.1938,-0.1917,-0.1909,-0.1847,-0.1913,-0.1898,-0.19,-0.1853,-0.1851,-0.185,-0.1849,0,0,-0.1357,-0.144,-0.1448,-0.1484,-0.1555,-0.1583,-0.1647,-0.1709,-0.1752,-0.1807,-0.1857,-0.1917,-0.1931,-0.194,-0.1959,-0.1971,-0.2011,-0.1954,-0.1953,-0.1929,-0.2021,-0.1913,-0.1904,-0.2018,-0.2018,-0.2019,-0.2002,0,-0.1366,-0.1424,-0.1468,-0.1533,-0.1569,-0.163,-0.1685,-0.1747,-0.1799,-0.1855,-0.1893,-0.1945,-0.1951,-0.1978,-0.1995,-0.2009,-0.2017,-0.2014,-0.1973,-0.197,-0.1853,-0.1903,-0.2021,-0.2003,-0.2003,-0.2004,-0.2004,0,-0.1363,-0.1406,-0.1471,-0.1559,-0.158,-0.1629,-0.1717,-0.1771,-0.1851,-0.1891,-0.1941,-0.1971,-0.2016,-0.2009,-0.2035,-0.2034,-0.203,-0.203,-0.2029,-0.189,-0.1865,-0.1922,-0.2007,-0.2006,-0.2006,-0.2006,-0.2006,0,-0.1315,-0.1406,-0.1459,-0.149,-0.1594,-0.1639,-0.1695,-0.1782,-0.183,-0.1912,-0.1947,-0.1999,-0.2029,-0.2035,-0.2045,-0.2043,-0.2054,-0.2049,-0.1944,-0.1936,-0.1999,-0.1993,-0.2055,-0.2055,-0.2055,-0.2055,-0.2055,0,-0.1294,-0.1339,-0.1446,-0.1474,-0.1538,-0.1619,-0.169,-0.1753,-0.1839,-0.1884,-0.1959,-0.1988,-0.2038,-0.2055,-0.2049,-0.1994,-0.2056,-0.1938,-0.1923,-0.2038,-0.2037,-0.2001,-0.1995,-0.2055,-0.2055,-0.2055,-0.2055,0,-0.123,-0.1305,-0.1368,-0.1481,-0.1519,-0.1561,-0.1678,-0.1719,-0.1815,-0.1872,-0.1899,-0.1985,-0.2,-0.2031,-0.2042,-0.1985,-0.1956,-0.1924,-0.204,-0.2033,-0.1826,-0.1825,-0.1785,-0.1781,-0.1777,-0.1774,-0.1772,0,-0.1202,-0.123,-0.1351,-0.1388,-0.1443,-0.1523,-0.1573,-0.1688,-0.1725,-0.1851,-0.1857,-0.1923,-0.1963,-0.188,-0.193,-0.1897,-0.1885,-0.1849,-0.1836,-0.1808,-0.1798,-0.1803,-0.1806,-0.1767,-0.1766,-0.1765,-0.1764,0,-0.114,-0.1193,-0.1244,-0.1315,-0.1377,-0.1436,-0.1513,-0.1532,-0.1651,-0.1757,-0.1769,-0.1781,-0.1797,-0.1798,-0.179,-0.1771,-0.1858,-0.1814,-0.182,-0.1807,-0.1786,-0.178,-0.1788,-0.1752,-0.1754,-0.1755,-0.1756,0,-0.1091,-0.1106,-0.1176,-0.1227,-0.1299,-0.1322,-0.1381,-0.1424,-0.1477,-0.1616,-0.1615,-0.1693,-0.1776,-0.1733,-0.1727,-0.1697,-0.167,-0.1611,-0.1628,-0.1642,-0.1604,-0.1557,-0.143,0,0,0,0,0,-0.1033,-0.1041,-0.1082,-0.1131,-0.1194,-0.1232,-0.1327,-0.1388,-0.1505,-0.1471,-0.154,-0.1551,-0.1552,-0.1595,-0.1532,-0.166,-0.1674,-0.1581,-0.1615,-0.1687,-0.1701,-0.1671,0,0,0,0,0,0,-0.0996,-0.1031,-0.1045,-0.1033,-0.1046,-0.1099,-0.1155,-0.1238,-0.1226,-0.1352,-0.1357,-0.1454,-0.1472,-0.156,-0.1499,-0.151,-0.1499,-0.1636,-0.1631,-0.1679,-0.1692,-0.1703,-0.1677,0,0,0,0,0]},{"header":{"parameterUnit":"m.s-1","parameterCategory":2,"la1":30.2991,"la2":30.254,"lo1":-89.0895,"lo2":-89.0444,"dy":0.0017,"dx":0.0017,"nx":28,"ny":28,"refTime":"2025-04-16T09:00:00:Z","depth":"4","parameterNumber":3,"parameterNumberName":"V-component_of_CURRENTS"},"data":[0,0,0,0,0,0,0,0,0,0,0,0,0,0,0,0,0,0,0,0,0,0,0,0,0,0,0,0,0,0,0,0,0,0,0,0,0,0,0,0,0,0,0,0,0,0,0,0,0,0,0,0,0,0,0,0,0,0,-0.0029,-0.0028,0,0.0019,0.0019,0.002,0.0059,0.0059,0.006,0.006,0.0155,0.0157,0.0159,0,0,0,0,0,0,0,0,0,0,0,0,0,-0.006,-0.006,-0.0029,-0.0028,-0.0028,0.0018,0.0019,0.002,0.0059,0.0059,0.006,0.006,0.0154,0.0157,0.0159,0,0,0,0,0,0,0,0,0,0,0,0,0,-0.0033,-0.006,-0.0029,-0.0002,0.0001,0.0018,0.0019,0.002,0.0059,0.0059,0.006,0.0061,0.0153,0.0156,0.016,0.0166,0,0,0.0169,0.0171,0,0,0,0,0,0,0,0,-0.0035,-0.0032,-0.0007,-0.0004,-0.0001,0.0034,0.0043,0.0071,0.0059,0.0037,0.006,0.0061,0.0118,0.0124,0.0131,0.0171,0.0175,0.017,0.0171,0.0173,0.0174,0,0,0,0,0,0,0,-0.0037,-0.0034,-0.001,-0.0006,-0.0003,0.0016,0.002,0.0048,0.0074,0.0039,0.0042,0.0047,0.012,0.0128,0.0134,0.0176,0.0169,0.0172,0.0174,0.0176,0.0229,0.0228,0,0,0,0,0,0,-0.0044,-0.0036,-0.0012,-0.0009,-0.0016,0.0016,0.0021,0.0022,0.0073,0.0081,0.0046,0.0048,0.0122,0.013,0.0137,0.0138,0.0173,0.0176,0.0178,0.0229,0.0229,0.0228,0,0,0,0,0,0,-0.0045,-0.0043,-0.0013,-0.0021,-0.0016,0.0015,0.0017,0.0022,0.0032,0.0078,0.0087,0.0051,0.0123,0.0133,0.0157,0.0142,0.0177,0.018,0.023,0.0229,0.0228,0.0146,0,0,0,0,0,0,-0.0047,-0.0044,-0.0047,-0.0022,-0.0016,-0.001,0.0016,0.0023,0.0035,0.0038,0.0085,0.0094,0.0124,0.0152,0.0161,0.0147,0.0183,0.023,0.0229,0.0228,0.0149,0.0143,0.0137,0,0,0,0,0,-0.0048,-0.0056,-0.0048,-0.0045,-0.0021,-0.001,-0.0006,0.0019,0.0034,0.0032,0.0064,0.0093,0.0153,0.0154,0.0164,0.0152,0.0231,0.023,0.0229,0.0152,0.0144,0.0137,0,0,0,0,0,0,-0.0071,-0.0052,-0.0042,-0.0044,-0.0031,-0.0004,-0.0002,0.0015,0.0037,0.0044,0.0088,0.0099,0.0113,0.0146,0.0147,0.0165,0.0196,0.0197,0.0135,0.0127,0.0121,0.0114,0.0185,0,0,0,0,0,-0.0079,-0.008,-0.0059,-0.0062,-0.0056,-0.0031,-0.0023,-0.0007,0.0017,0.0028,0.0059,0.0092,0.0115,0.0132,0.0158,0.017,0.0204,0.0169,0.0162,0.0157,0.0158,0.0194,0.019,0.0224,0.0224,0.0224,0,0,-0.0089,-0.0079,-0.008,-0.0067,-0.0054,-0.0058,-0.0024,-0.0017,-0.0021,0.0035,0.0041,0.0071,0.0113,0.0122,0.0132,0.0149,0.0163,0.0155,0.015,0.0155,0.0192,0.0189,0.0186,0.0224,0.0224,0.0224,0,0,-0.0114,-0.0102,-0.0112,-0.0106,-0.0092,-0.0078,-0.0078,-0.0054,-0.0044,-0.0034,0.0001,0.0023,0.0061,0.0084,0.0101,0.0079,0.0127,0.0087,0.0051,0.0085,0.0082,0.0081,0.0108,0.011,0.0085,0.0085,0.0085,0,-0.0127,-0.0137,-0.0114,-0.0124,-0.0125,-0.0091,-0.0106,-0.0093,-0.0066,-0.006,-0.0041,0.0008,0.0042,0.0055,0.0044,0.0064,0.0091,0.0073,0.0076,0.0075,0.0075,0.0104,0.0106,0.0081,0.0082,0.0082,0.0082,0,-0.0158,-0.0169,-0.0175,-0.0178,-0.0177,-0.0184,-0.0165,-0.0161,-0.0141,-0.0124,-0.0106,-0.0061,-0.0029,-0.0021,0.0006,0.0014,0.0036,0.006,0.0092,0.0066,0.0099,0.0103,0.0075,0.0077,0.0078,0.0079,0,0,-0.0182,-0.0195,-0.0198,-0.0215,-0.0208,-0.0212,-0.0219,-0.0215,-0.0218,-0.0187,-0.0186,-0.0148,-0.0116,-0.0093,-0.0056,-0.0028,-0.0013,0.001,0.0014,0.0031,0.0058,0.0067,0.0073,0.0011,0.0012,0.0012,0.0077,0,-0.0214,-0.0253,-0.0247,-0.0285,-0.0304,-0.0284,-0.0296,-0.0287,-0.0265,-0.0255,-0.0205,-0.0187,-0.0145,-0.013,-0.0098,-0.0032,-0.0004,-0.0033,0.0086,0.009,0.0096,0.0078,0.0014,0.008,0.0081,0.0082,0.0083,0,-0.0245,-0.027,-0.0316,-0.0347,-0.0353,-0.0369,-0.0379,-0.0383,-0.0355,-0.0337,-0.0302,-0.0256,-0.0212,-0.0171,-0.0073,-0.0093,-0.0026,0.0027,0.0032,0.0075,0.0107,0.0117,0.0091,0.0091,0.009,0.0089,0.0089,0,-0.0278,-0.0318,-0.036,-0.037,-0.0396,-0.0413,-0.0422,-0.0409,-0.0417,-0.0382,-0.0375,-0.0311,-0.0276,-0.0187,-0.0072,-0.0073,0.0043,0.0059,0.0131,0.0132,0.0141,0.0143,0.0129,0.0129,0.0129,0.0129,0.0129,0,-0.0313,-0.0347,-0.0382,-0.0405,-0.0458,-0.0455,-0.0494,-0.0487,-0.0479,-0.0489,-0.0417,-0.0397,-0.0276,-0.0192,-0.0089,0.0034,0.0034,0.0122,0.0149,0.0104,0.01,0.0144,0.0144,0.0132,0.0131,0.0131,0.013,0,-0.0339,-0.0361,-0.0415,-0.0458,-0.0476,-0.0511,-0.055,-0.0572,-0.0551,-0.0558,-0.0549,-0.0464,-0.0353,-0.0224,-0.0075,0.0009,0.0129,0.0176,0.0113,0.0136,0.0197,0.0192,0.0248,0.0249,0.025,0.025,0.0251,0,-0.0354,-0.0385,-0.0456,-0.0497,-0.052,-0.057,-0.0607,-0.061,-0.0626,-0.0594,-0.0596,-0.0498,-0.0425,-0.0211,-0.007,0.0122,0.0155,0.0216,0.0206,0.0188,0.0209,0.0204,0.0199,0.0252,0.0252,0.0252,0.0253,0,-0.0383,-0.041,-0.0454,-0.0542,-0.0595,-0.0654,-0.0697,-0.0715,-0.071,-0.0695,-0.0631,-0.0513,-0.0387,-0.0217,-0.0063,0.0077,0.0172,0.0224,0.0223,0.0215,0.0194,0.0212,0.0207,0.0255,0.0255,0.0255,0.0254,0,-0.04,-0.0442,-0.0506,-0.0578,-0.0654,-0.0715,-0.0735,-0.0745,-0.0754,-0.0708,-0.0685,-0.0537,-0.0452,-0.0238,-0.0094,0.0041,0.0073,0.0117,0.0122,0.0121,0.007,0.0023,0.0053,0,0,0,0,0,-0.0413,-0.0465,-0.054,-0.0621,-0.0696,-0.0739,-0.0788,-0.0794,-0.0786,-0.0751,-0.0718,-0.0595,-0.0376,-0.0273,-0.0138,-0.0084,0.0094,0.008,0.0146,0.0269,0.0266,0.0229,0,0,0,0,0,0,-0.0427,-0.0497,-0.054,-0.0639,-0.0699,-0.0778,-0.0812,-0.0808,-0.0778,-0.0748,-0.0632,-0.0562,-0.0349,-0.0459,-0.0137,-0.0094,-0.0032,0.0186,0.0189,0.0271,0.0268,0.0266,0.0227,0,0,0,0,0]}]]